Terminal Aerodrome Forecast
Issued by NWS Grand Rapids, MI

Home | Current Version | Previous Version | Text Only | Print | Product List | Glossary On
Versions: 1 2 3 4 5 6 7 8 9 10 11 12 13 14 15 16 17 18 19 20 21 22 23 24 25 26
000
FTUS43 KGRR 111219 AAB
TAFGRR
TAF AMD
KGRR 111219Z 1112/1212 11006KT P6SM OVC030
     FM111300 17010KT 4SM -SN OVC018
     FM111400 17010KT 1 1/2SM -SN BR OVC008
     FM111700 18012KT P6SM VCSH OVC012
     FM112100 19010KT 3/4SM -SN BR OVC005
     FM120400 32015G26KT 4SM -SHSN OVC015
     FM120800 31016KT P6SM OVC025=

USA.gov is the U.S. government's official web portal to all federal, state and local government web resources and services.